Columbia Airport, CA

12:27 AM PDT on October 15, 2019 (GMT -0700)
Columbia Airport

Weather History for KO22 - July, 2019

Change the Weather History Date:

Wednesday, July 17, 2019

  Actual Average (KMOD) Record (KMOD)
Temperature  
Mean Temperature 74 °F -  
Max Temperature 89 °F 96 °F 108 °F (1935)
Min Temperature 59 °F 63 °F 52 °F (1936)
Degree Days  
Heating Degree Days 0 0  
Month to date heating degree days 0  
Since 1 June heating degree days 3  
Since 1 July heating degree days 0  
Cooling Degree Days 9 14  
Month to date cooling degree days 233  
Year to date cooling degree days 731  
Since 1 June cooling degree days 532  
Growing Degree Days 24 (Base 50)    
Moisture  
Dew Point 53 °F    
Average Humidity 50    
Maximum Humidity 82    
Minimum Humidity 26    
Precipitation  
Precipitation 0.00 in 0.00 in 0.00 in (2019)
Month to date precipitation 0.00  
Year to date precipitation 8.75  
Snow  
Snow 0.00 in - - ()
Month to date snowfall  
Since 1 June snowfall  
Since 1 July snowfall  
Snow Depth -    
Sea Level Pressure  
Sea Level Pressure 29.94 in    
Wind  
Wind Speed 1 mph (SSW)    
Max Wind Speed 7 mph    
Max Gust Speed 14 mph    
Visibility 10 miles    
Events      
T = Trace of Precipitation, MM = Missing Value Source: NWS Daily Summary

Daily Weather History Graph

Daily Weather History Graph

Search for Another Location

Airport or City:

Astronomy

Jul. 17, 2019 Rise Set
Actual Time 5:52 AM PDT 8:22 PM PDT
Civil Twilight 5:21 AM PDT 8:53 PM PDT
Nautical Twilight 4:44 AM PDT 9:30 PM PDT
Astronomical Twilight 4:02 AM PDT 10:12 PM PDT
Moon 9:15 PM PDT (7/17) 6:29 AM PDT (7/17)
Length of Visible Light 15h 31m
Length of Day
14h 30m
Full, 99% of the Moon is Illuminated
Jul 17
Full
Jul 24
Last Quarter
Jul 31
New
Aug 7
First Quarter
Aug 15
Full

Hourly Weather History & Observations

Time (PDT) Temp. Heat Index Dew Point Humidity Pressure Visibility Wind Dir Wind Speed Gust Speed Precip Events Conditions
12:15 AM 64.4 °F - 51.8 °F 64% 29.91 in 10.0 mi Calm Calm - N/A   Partly Cloudy
12:35 AM 62.6 °F - 51.8 °F 68% 29.91 in 10.0 mi Calm Calm - N/A   Mostly Cloudy
12:55 AM 62.6 °F - 51.8 °F 68% 29.91 in 10.0 mi Calm Calm - N/A   Partly Cloudy
1:15 AM 60.8 °F - 51.8 °F 72% 29.91 in 10.0 mi Calm Calm - N/A   Clear
1:35 AM 60.8 °F - 51.8 °F 72% 29.91 in 10.0 mi Calm Calm - N/A   Clear
1:55 AM 60.8 °F - 51.8 °F 72% 29.90 in 10.0 mi Calm Calm - N/A   Clear
2:15 AM 60.8 °F - 51.8 °F 72% 29.90 in 10.0 mi Calm Calm - N/A   Clear
2:35 AM 60.8 °F - 51.8 °F 72% 29.90 in 10.0 mi Calm Calm - N/A   Clear
2:55 AM 60.8 °F - 51.8 °F 72% 29.90 in 10.0 mi Calm Calm - N/A   Clear
3:15 AM 60.8 °F - 51.8 °F 72% 29.90 in 10.0 mi Calm Calm - N/A   Clear
3:35 AM 60.8 °F - 51.8 °F 72% 29.89 in 10.0 mi Calm Calm - N/A   Clear
3:55 AM 59.0 °F - 53.6 °F 82% 29.89 in 10.0 mi Calm Calm - N/A   Clear
4:15 AM 60.8 °F - 53.6 °F 77% 29.89 in 10.0 mi Calm Calm - N/A   Clear
4:35 AM 60.8 °F - 53.6 °F 77% 29.89 in 10.0 mi Calm Calm - N/A   Clear
4:55 AM 59.0 °F - 53.6 °F 82% 29.90 in 10.0 mi Calm Calm - N/A   Clear
5:15 AM 59.0 °F - 53.6 °F 82% 29.90 in 10.0 mi Calm Calm - N/A   Clear
5:35 AM 59.0 °F - 53.6 °F 82% 29.91 in 10.0 mi Calm Calm - N/A   Clear
5:55 AM 59.0 °F - 53.6 °F 82% 29.91 in 10.0 mi Calm Calm - N/A   Clear
6:15 AM 59.0 °F - 53.6 °F 82% 29.91 in 10.0 mi Calm Calm - N/A   Clear
6:35 AM 59.0 °F - 53.6 °F 82% 29.92 in 10.0 mi Calm Calm - N/A   Clear
6:55 AM 60.8 °F - 55.4 °F 82% 29.92 in 10.0 mi Calm Calm - N/A   Clear
7:15 AM 64.4 °F - 55.4 °F 73% 29.93 in 10.0 mi Calm Calm - N/A   Clear
7:35 AM 66.2 °F - 57.2 °F 73% 29.93 in 10.0 mi Calm Calm - N/A   Clear
7:55 AM 69.8 °F - 59.0 °F 68% 29.94 in 10.0 mi Calm Calm - N/A   Clear
8:15 AM 73.4 °F - 57.2 °F 57% 29.94 in 10.0 mi Calm Calm - N/A   Clear
8:35 AM 75.2 °F - 55.4 °F 50% 29.94 in 10.0 mi Calm Calm - N/A   Clear
8:55 AM 78.8 °F - 55.4 °F 44% 29.94 in 10.0 mi Calm Calm - N/A   Clear
9:35 AM 80.6 °F 80.5 °F 55.4 °F 42% 29.95 in 10.0 mi South 4.6 mph - N/A   Clear
9:55 AM 82.4 °F 81.4 °F 53.6 °F 37% 29.95 in 10.0 mi Variable 5.8 mph - N/A   Clear
10:15 AM 82.4 °F 81.4 °F 53.6 °F 37% 29.95 in 10.0 mi Variable 3.5 mph - N/A   Clear
10:35 AM 84.2 °F 82.8 °F 53.6 °F 35% 29.95 in 10.0 mi Variable 4.6 mph - N/A   Clear
10:55 AM 84.2 °F - 51.8 °F 33% 29.95 in 10.0 mi SSE 4.6 mph - N/A   Clear
11:15 AM 86.0 °F - 51.8 °F 31% 29.95 in 10.0 mi Variable 6.9 mph - N/A   Clear
11:35 AM 86.0 °F 84.5 °F 55.4 °F 35% 29.96 in 10.0 mi Calm Calm 12.7 mph N/A   Clear
11:55 AM 86.0 °F 84.2 °F 53.6 °F 33% 29.96 in 10.0 mi SW 5.8 mph 13.8 mph N/A   Clear
12:15 PM 86.0 °F - 51.8 °F 31% 29.96 in 10.0 mi South 5.8 mph 11.5 mph N/A   Clear
12:35 PM 86.0 °F - 50.0 °F 29% 29.97 in 10.0 mi SSE 6.9 mph - N/A   Clear
12:55 PM 87.8 °F - 50.0 °F 27% 29.97 in 10.0 mi Calm Calm - N/A   Clear
1:15 PM 87.8 °F - 50.0 °F 27% 29.96 in 10.0 mi SSE 5.8 mph - N/A   Clear
1:35 PM 87.8 °F - 50.0 °F 27% 29.96 in 10.0 mi Variable 5.8 mph - N/A   Clear
1:55 PM 87.8 °F - 50.0 °F 27% 29.96 in 10.0 mi SSE 5.8 mph - N/A   Clear
2:15 PM 87.8 °F - 50.0 °F 27% 29.96 in 10.0 mi Variable 4.6 mph - N/A   Clear
2:35 PM 89.6 °F - 50.0 °F 26% 29.96 in 10.0 mi Variable 4.6 mph - N/A   Clear
2:55 PM 89.6 °F - 50.0 °F 26% 29.96 in 10.0 mi South 5.8 mph - N/A   Clear
3:15 PM 89.6 °F - 50.0 °F 26% 29.96 in 10.0 mi Variable 5.8 mph - N/A   Clear
3:35 PM 89.6 °F - 50.0 °F 26% 29.96 in 10.0 mi Variable 4.6 mph - N/A   Clear
3:55 PM 89.6 °F - 50.0 °F 26% 29.95 in 10.0 mi WNW 5.8 mph 12.7 mph N/A   Clear
4:15 PM 89.6 °F - 50.0 °F 26% 29.95 in 10.0 mi Variable 5.8 mph - N/A   Clear
4:35 PM 89.6 °F - 50.0 °F 26% 29.95 in 10.0 mi Calm Calm - N/A   Clear
4:55 PM 87.8 °F - 50.0 °F 27% 29.95 in 10.0 mi Calm Calm - N/A   Clear
5:15 PM 89.6 °F - 50.0 °F 26% 29.95 in 10.0 mi Calm Calm - N/A   Clear
5:35 PM 89.6 °F - 50.0 °F 26% 29.94 in 10.0 mi Variable 3.5 mph - N/A   Clear
5:55 PM 87.8 °F - 50.0 °F 27% 29.94 in 10.0 mi SW 4.6 mph - N/A   Clear
6:15 PM 89.6 °F - 50.0 °F 26% 29.94 in 10.0 mi WSW 5.8 mph - N/A   Clear
6:35 PM 87.8 °F - 50.0 °F 27% 29.94 in 10.0 mi SW 4.6 mph - N/A   Clear
6:55 PM 87.8 °F - 50.0 °F 27% 29.94 in 10.0 mi SSW 3.5 mph - N/A   Clear
7:15 PM 86.0 °F - 50.0 °F 29% 29.94 in 10.0 mi Calm Calm - N/A   Clear
7:35 PM 86.0 °F - 50.0 °F 29% 29.94 in 10.0 mi SW 3.5 mph - N/A   Clear
7:55 PM 84.2 °F - 51.8 °F 33% 29.94 in 10.0 mi Calm Calm - N/A   Clear
8:15 PM 82.4 °F - 51.8 °F 35% 29.94 in 10.0 mi Calm Calm - N/A   Clear
8:35 PM 77.0 °F - 53.6 °F 44% 29.94 in 10.0 mi Calm Calm - N/A   Clear
8:55 PM 75.2 °F - 57.2 °F 53% 29.95 in 10.0 mi Variable 3.5 mph - N/A   Clear
9:15 PM 75.2 °F - 57.2 °F 53% 29.95 in 10.0 mi Variable 3.5 mph - N/A   Clear
9:35 PM 73.4 °F - 55.4 °F 53% 29.96 in 10.0 mi Calm Calm - N/A   Clear
9:55 PM 71.6 °F - 55.4 °F 57% 29.96 in 10.0 mi Calm Calm - N/A   Clear
10:15 PM 69.8 °F - 53.6 °F 56% 29.96 in 10.0 mi Calm Calm - N/A   Clear
10:35 PM 69.8 °F - 53.6 °F 56% 29.96 in 10.0 mi Calm Calm - N/A   Clear
11:15 PM 68.0 °F - 53.6 °F 60% 29.96 in 10.0 mi Calm Calm - N/A   Clear
11:35 PM 68.0 °F - 53.6 °F 60% 29.96 in 10.0 mi Calm Calm - N/A   Clear
11:55 PM 66.2 °F - 53.6 °F 64% 29.96 in 10.0 mi Calm Calm - N/A   Clear